Querétaro Intercontinental Airport
MMQT : now visible

Airfield :











YOU CAN JOIN US ON...

 
LOGIN :

Register | Disclaimer

   EN    FR    IT 

 









Legend :    VFR   Marginal VFR   IFR   Intensive IFR   Very Intensive IFR
Visi :
Ceiling :
>= 8 km
>= 3000ft
5 to 8 km
1000 to 3000 ft
1500m to 5 km
500 to 1000 ft
800 to 1500m
200 to 500 ft
< 800m
< 200 ft
Symbols :   Thunderstorms  Fog  Heavy snow  Heavy precipitations  Wind > 20 kt






- Airport Elevation : 6296 ft
- IATA code : QRO


MMQT - Querétaro Intercontinental

EXPIRED METARs :
  • 241241Z 00000KT 4SM SCT008 BKN014 OVC100 13/13 A3035 RMK 8/87/ BR HZ

TAF TAF MMQT
Valid from the 24 at 06:00 until the 25 at 06:00 UTC


240442Z 2406/2506 13005KT 6SM HZ SCT020
TEMPO 2412/2415 3SM BR BKN010
FM241800 13010KT P6SM SCT030
TEMPO 2422/2502 BKN030
MMFR FIR / North America



MET'MAP, your aeronautical weather chart ! - Copyright ORBIFLY December 2007 - Disclaimer

ORBIFLY MET'MAP TEAM :

Programming & Development : Alexandra Zaïnal
Concept & original design : Baudouin d'Aumeries
Assistance for programming : Marc-Olivier Méhu
Technical & hardware support : Manuel Goepfert

Contact : metmap@orbifly.com




SOURCES & CREDITS :

   NOAA       Earth
Advisory